Weather History for Saipan, MP

Change the Weather History Date:

Thursday, November 15, 2012

  Actual Average Record
Temperature  
Mean Temperature 85 °F -  
Max Temperature 89 °F 84 °F 89 °F (2012)
Min Temperature 81 °F 76 °F 77 °F (2005)
Cooling Degree Days 20    
Growing Degree Days 35 (Base 50)    
Moisture  
Dew Point 75 °F    
Average Humidity 73    
Maximum Humidity 79    
Minimum Humidity 61    
Precipitation  
Precipitation 0.00 in - - ()
Sea Level Pressure  
Sea Level Pressure 29.98 in    
Wind  
Wind Speed 12 mph (NE)    
Max Wind Speed 21 mph    
Max Gust Speed 25 mph    
Visibility 10 miles    
Events      
Averages and records for this station are not official NWS values.
T = Trace of Precipitation, MM = Missing Value Source: NWS Daily Summary

Daily Weather History Graph

Daily Weather History Graph

Search for Another Location

Airport:

Trip Planner

Search our weather history database for the weather conditions in past years. The results will help you decide how hot, cold, wet, or windy it might be!

Date:

Astronomy

Nov. 15, 2012 Rise Set
Actual Time 6:18 AM ChST 5:44 PM ChST
Civil Twilight 5:56 AM ChST 6:07 PM ChST
Nautical Twilight 5:30 AM ChST 6:33 PM ChST
Astronomical Twilight 5:04 AM ChST 6:58 PM ChST
Moon 7:22 AM ChST (11/15) 7:03 PM ChST (11/15)
Length of Visible Light 12h 10m
Length of Day
11h 25m
New Moon, 2% of the Moon is Illuminated
Nov 15
New Moon
Nov 21
First Quarter
Nov 29
Full
Dec 7
Last Quarter
Dec 13
New

Hourly Weather History & Observations

Time (ChST) Temp. Heat Index Dew Point Humidity Pressure Visibility Wind Dir Wind Speed Gust Speed Precip Events Conditions
12:54 AM 82.0 °F 88.6 °F 75.0 °F 79% 30.01 in 10.0 mi NE 6.9 mph - N/A   Mostly Cloudy
1:54 AM 82.0 °F 88.6 °F 75.0 °F 79% 29.99 in 10.0 mi ENE 9.2 mph - N/A   Mostly Cloudy
2:54 AM 82.0 °F 87.9 °F 73.9 °F 76% 29.98 in 10.0 mi NE 9.2 mph - N/A   Scattered Clouds
3:54 AM 82.0 °F 88.6 °F 75.0 °F 79% 29.97 in 10.0 mi NE 9.2 mph - N/A   Scattered Clouds
4:54 AM 81.0 °F 86.2 °F 73.9 °F 79% 29.96 in 10.0 mi NE 10.4 mph - N/A   Partly Cloudy
5:54 AM 81.0 °F 86.2 °F 73.9 °F 79% 29.98 in 10.0 mi NE 12.7 mph - 0.00 in   Scattered Clouds
6:54 AM 82.0 °F 88.6 °F 75.0 °F 79% 30.00 in 10.0 mi NE 12.7 mph - N/A   Scattered Clouds
7:54 AM 84.9 °F 93.3 °F 75.0 °F 72% 30.02 in 10.0 mi NE 12.7 mph - N/A   Scattered Clouds
8:54 AM 86.0 °F 96.0 °F 75.9 °F 72% 30.03 in 10.0 mi NE 16.1 mph 23.0 mph N/A   Scattered Clouds
9:54 AM 87.1 °F 96.3 °F 75.0 °F 67% 30.02 in 10.0 mi NE 17.3 mph 25.3 mph N/A   Scattered Clouds
10:54 AM 88.0 °F 97.5 °F 75.0 °F 65% 30.00 in 10.0 mi NE 18.4 mph - N/A   Partly Cloudy
11:54 AM 88.0 °F 97.5 °F 75.0 °F 65% 29.99 in 10.0 mi ENE 17.3 mph 24.2 mph N/A   Partly Cloudy
12:54 PM 89.1 °F 98.0 °F 73.9 °F 61% 29.96 in 10.0 mi ENE 20.7 mph - N/A   Partly Cloudy
1:54 PM 89.1 °F 98.0 °F 73.9 °F 61% 29.93 in 10.0 mi NE 19.6 mph - N/A   Partly Cloudy
2:54 PM 88.0 °F 96.5 °F 73.9 °F 63% 29.93 in 10.0 mi ENE 17.3 mph 23.0 mph N/A   Mostly Cloudy
3:54 PM 87.1 °F 96.3 °F 75.0 °F 67% 29.93 in 10.0 mi ENE 17.3 mph - N/A   Scattered Clouds
4:54 PM 86.0 °F 95.1 °F 75.0 °F 70% 29.94 in 10.0 mi ENE 16.1 mph - N/A   Scattered Clouds
5:54 PM 82.9 °F 89.4 °F 73.9 °F 74% 29.96 in 10.0 mi ENE 16.1 mph 21.9 mph N/A   Scattered Clouds
6:54 PM 82.9 °F 90.2 °F 75.0 °F 77% 29.97 in 10.0 mi ENE 15.0 mph - N/A   Scattered Clouds
7:54 PM 82.9 °F 89.4 °F 73.9 °F 74% 30.00 in 10.0 mi ENE 16.1 mph - N/A   Mostly Cloudy
8:54 PM 82.9 °F 90.2 °F 75.0 °F 77% 30.01 in 10.0 mi NE 12.7 mph - N/A   Scattered Clouds
9:54 PM 82.9 °F 90.2 °F 75.0 °F 77% 30.01 in 10.0 mi NE 15.0 mph 19.6 mph N/A   Mostly Cloudy
10:54 PM 82.9 °F 90.2 °F 75.0 °F 77% 30.01 in 10.0 mi NE 12.7 mph - 0.00 in   Scattered Clouds
11:54 PM 82.0 °F 88.6 °F 75.0 °F 79% 30.00 in 10.0 mi NE 12.7 mph 19.6 mph 0.00 in   Scattered Clouds